Location: Bannatyne
(13.0833°N, 59.5333°W)
Time: 07:24:56
(UTC+00:00)

Transit 2A - Pass Details

Date: 04 February 2020
Orbit: 600 x 959 km, 66.7° (Epoch: 21 February)

Event Time Altitude Azimuth Distance (km) Brightness Sun altitude
Rises 07:44:31 0° 333° (NNW) 3,226 - -38.6°
Reaches altitude 10° 07:46:50 10° 330° (NNW) 2,353 - -38.1°
Maximum altitude 07:52:12 63° 250° (WSW) 945 - -36.8°
Exits shadow 07:57:04 15° 172° (S) 2,192 8.5 -35.6°
Drops below altitude 10° 07:58:07 10° 170° (S) 2,578 8.9 -35.4°
Sets 08:00:46 0° 167° (SSE) 3,557 9.7 -34.8°
